Location: Sternwarte_Laufen
(47.9344°N, 12.9346°E)
Time: 21:39:31
(UTC+01:00)

N. Korean satellite - Visible Passes

Search period start: 23 November 2017 00:00
Search period end: 03 December 2017 00:00
Orbit: 460 x 514 km, 97.2° (Epoch: 22 November)

Date Brightness Start Highest point End Pass type
(mag) Time Alt. Az. Time Alt. Az. Time Alt. Az.
23 Nov 9.9 05:56:07 10° NE 05:58:18 15° E 06:00:28 10° SE visible
23 Nov 6.7 18:07:46 10° S 18:11:18 76° WSW 18:14:56 10° NNW visible
24 Nov 6.6 17:44:22 10° SSE 17:47:50 55° ENE 17:51:23 10° N visible
24 Nov 10.0 19:20:21 10° WSW 19:21:43 12° W 19:23:07 10° WNW visible
25 Nov 7.9 06:41:28 10° NNE 06:45:07 46° E 06:48:45 10° S visible
25 Nov 7.4 17:21:18 10° SE 17:24:26 30° ENE 17:27:38 10° N visible
25 Nov 9.2 18:55:13 10° SW 18:58:00 21° W 19:00:50 10° NW visible
26 Nov 9.2 06:18:19 10° NE 06:21:31 26° E 06:24:41 10° SSE visible
26 Nov 8.1 16:58:41 10° ESE 17:01:07 18° ENE 17:03:35 10° NNE visible
26 Nov 8.0 18:31:01 10° SSW 18:34:21 39° W 18:37:48 10° NNW visible
27 Nov 9.9 05:55:38 10° NE 05:57:49 15° E 05:59:59 10° SE visible
27 Nov 6.7 18:07:14 10° S 18:10:47 77° WSW 18:14:27 10° NNW visible
28 Nov 6.6 17:43:48 10° SSE 17:47:18 55° ENE 17:50:54 10° N visible
28 Nov 10.0 19:19:43 10° WSW 19:21:11 12° W 19:22:41 10° WNW visible
29 Nov 7.9 06:40:57 10° NNE 06:44:36 46° E 06:48:14 10° S visible
29 Nov 7.4 17:20:44 10° SE 17:23:54 30° ENE 17:27:08 10° N visible
29 Nov 9.2 18:54:37 10° SW 18:57:27 22° W 19:00:20 10° NW visible
30 Nov 9.2 06:17:47 10° NE 06:20:59 25° E 06:24:09 10° SSE visible
30 Nov 8.1 16:58:05 10° ESE 17:00:33 18° ENE 17:03:04 10° NNE visible
30 Nov 8.0 18:30:24 10° SSW 18:33:47 39° W 18:37:16 10° NNW visible
01 Dec 9.9 05:55:06 10° NE 05:57:16 15° E 05:59:25 10° SE visible
01 Dec 6.7 18:06:36 10° S 18:10:12 77° WSW 18:13:55 10° NNW visible
02 Dec 6.6 17:43:09 10° SSE 17:46:42 55° ENE 17:50:20 10° N visible
02 Dec 10.0 19:19:00 10° WSW 19:20:35 12° W 19:22:11 10° WNW visible
